SV1DAY-13 Weather Reports


Display with metric or nautical units.
time (UTC)temp
F
wind
direction
speed
MPH
gust
MPH
rain 1hr
in
rain 24hr
in
rain mn
in
humidity
%
barometer
mb
20260906094549 81 289 10.0 21.0 0.00 0.00 0.00 52 1013.6
20260906093044 81 294 11.0 17.0 0.00 0.00 0.00 49 1013.7
20260906091559 82 263 12.0 19.0 0.00 0.00 0.00 48 1013.7
20260906090124 80 16 12.0 20.0 0.00 0.00 0.00 52 1013.7
20260906084555 80 290 15.0 22.0 0.00 0.00 0.00 53 1013.5
20260906083047 80 315 10.0 19.0 0.00 0.00 0.00 50 1013.7
20260906081552 79 304 12.0 21.0 0.00 0.00 0.00 52 1013.7
20260906080127 79 9 10.0 19.0 0.00 0.00 0.00 52 1013.8
20260906074605 78 360 6.0 18.0 0.00 0.00 0.00 52 1013.8
20260906073103 78 245 6.0 19.0 0.00 0.00 0.00 53 1013.7
20260906071546 77 315 9.0 20.0 0.00 0.00 0.00 54 1013.5
20260906070116 75 19 10.0 23.0 0.00 0.00 0.00 55 1013.4
20260906064553 75 41 11.0 23.0 0.00 0.00 0.00 55 1013.3
20260906063051 74 9 18.0 29.0 0.00 0.00 0.00 56 1013.1
20260906061545 74 272 16.0 25.0 0.00 0.00 0.00 55 1013.0
20260906060108 74 9 14.0 25.0 0.00 0.00 0.00 55 1012.9
20260906054555 74 272 13.0 21.0 0.00 0.00 0.00 55 1012.8
20260906053052 73 293 12.0 28.0 0.00 0.00 0.00 55 1012.5
20260906051556 73 44 12.0 23.0 0.00 0.00 0.00 55 1012.5
20260906050114 72 10 16.0 25.0 0.00 0.00 0.00 55 1012.4
20260906044548 70 360 15.0 25.0 0.00 0.00 0.00 55 1012.2
20260906043100 69 360 15.0 25.0 0.00 0.00 0.00 57 1012.1
20260906041602 69 360 13.0 24.0 0.00 0.00 0.00 57 1011.9
20260906040032 69 360 17.0 29.0 0.00 0.00 0.00 57 1012.0
20260906034613 69 281 20.0 28.0 0.00 0.00 0.00 57 1012.0
20260906033047 69 279 16.0 29.0 0.00 0.00 0.00 58 1011.9
20260906031548 69 360 20.0 30.0 0.00 0.00 0.00 58 1011.8
20260906030125 69 360 24.0 31.0 0.00 0.00 0.00 57 1011.8
20260906024553 69 266 25.0 35.0 0.00 0.00 0.00 57 1011.8
20260906023050 69 267 23.0 33.0 0.00 0.00 0.00 60 1012.0
20260906021545 70 269 20.0 29.0 0.00 0.00 0.00 59 1012.1
20260906020111 69 249 17.0 29.0 0.00 0.00 0.00 58 1012.3
20260906014555 69 270 23.0 30.0 0.00 0.00 0.00 56 1012.1
20260906013104 70 265 17.0 30.0 0.00 0.00 0.00 56 1012.2
20260906011548 70 279 17.0 26.0 0.00 0.00 0.00 56 1012.1
20260906010111 71 256 13.0 24.0 0.00 0.00 0.00 56 1012.2
20260906004603 71 267 10.0 21.0 0.00 0.00 0.00 56 1012.3
20260906003056 70 277 9.0 22.0 0.00 0.00 0.00 56 1012.2
20260906001547 69 33 11.0 18.0 0.00 0.00 0.00 56 1012.3
20260906000117 69 314 10.0 18.0 0.00 0.00 0.00 56 1012.4
20260905234543 69 307 8.0 18.0 0.00 0.00 0.00 57 1012.4
20260905233056 70 279 8.0 15.0 0.00 0.00 0.00 57 1012.8
20260905231555 71 270 8.0 15.0 0.00 0.00 0.00 57 1012.9
20260905230120 72 9 8.0 18.0 0.00 0.00 0.00 57 1013.0
20260905224546 72 265 12.0 22.0 0.00 0.00 0.00 57 1012.8
20260905223042 74 253 8.0 15.0 0.00 0.00 0.00 58 1012.9
20260905221556 75 314 7.0 19.0 0.00 0.00 0.00 54 1013.0
20260905220120 75 277 11.0 20.0 0.00 0.00 0.00 56 1012.8
20260905214601 75 289 11.0 22.0 0.00 0.00 0.00 56 1012.8
20260905213059 75 281 13.0 22.0 0.00 0.00 0.00 55 1012.8
20260905211551 75 286 13.0 24.0 0.00 0.00 0.00 55 1012.5
20260905210112 75 311 18.0 31.0 0.00 0.00 0.00 55 1012.8
20260905204555 76 360 19.0 29.0 0.00 0.00 0.00 54 1012.6
20260905203106 76 360 19.0 31.0 0.00 0.00 0.00 53 1012.7
20260905201541 77 9 23.0 37.0 0.00 0.00 0.00 51 1012.3
20260905200110 77 26 28.0 39.0 0.00 0.00 0.00 50 1011.7
20260905194554 77 304 29.0 38.0 0.00 0.00 0.00 49 1012.0
20260905193051 77 314 31.0 44.0 0.00 0.00 0.00 51 1011.7
20260905191547 76 257 27.0 41.0 0.00 0.00 0.00 52 1011.9
20260905190109 77 282 26.0 43.0 0.00 0.00 0.00 49 1012.0
20260905184601 77 15 31.0 43.0 0.00 0.00 0.00 48 1012.0
20260905183054 77 9 27.0 42.0 0.00 0.00 0.00 51 1011.7
20260905181547 77 284 31.0 43.0 0.00 0.00 0.00 49 1011.3
20260905180042 77 288 30.0 43.0 0.00 0.00 0.00 51 1011.4
20260905174543 76 360 28.0 42.0 0.00 0.00 0.00 53 1011.4
20260905173058 74 360 29.0 42.0 0.00 0.00 0.00 57 1011.2
20260905171602 73 9 28.0 41.0 0.00 0.00 0.00 56 1010.7
20260905164600 75 360 30.0 43.0 0.00 0.00 0.00 58 1011.0
20260905163056 77 307 29.0 43.0 0.00 0.00 0.00 51 1011.1
20260905161504 78 275 28.0 41.0 0.00 0.00 0.00 47 1011.1
20260905160122 77 360 33.0 44.0 0.00 0.00 0.00 50 1010.4
20260905154618 77 9 26.0 40.0 0.00 0.00 0.00 52 1010.8
20260905153047 78 360 30.0 42.0 0.00 0.00 0.00 52 1010.5
20260905151559 79 273 26.0 37.0 0.00 0.00 0.00 49 1010.7
20260905150109 79 12 17.0 32.0 0.00 0.00 0.00 49 1011.1
20260905144555 79 360 22.0 34.0 0.00 0.00 0.00 50 1011.1
20260905143102 80 286 15.0 29.0 0.00 0.00 0.00 48 1011.4
20260905141551 79 232 11.0 29.0 0.00 0.00 0.00 49 1011.8
20260905140118 77 12 20.0 32.0 0.00 0.00 0.00 55 1011.6
20260905134543 77 82 20.0 33.0 0.00 0.00 0.00 55 1011.4
20260905133042 79 309 13.0 25.0 0.00 0.00 0.00 54 1011.5
20260905131556 78 315 11.0 27.0 0.00 0.00 0.00 55 1011.9
20260905130121 79 275 7.0 18.0 0.00 0.00 0.00 55 1011.7
20260905124652 80 306 11.0 18.0 0.00 0.00 0.00 55 1011.6
20260905123048 80 44 6.0 16.0 0.00 0.00 0.00 54 1011.8
20260905121540 79 34 9.0 16.0 0.00 0.00 0.00 55 1011.7
20260905120106 77 24 9.0 21.0 0.00 0.00 0.00 55 1011.9
20260905114607 77 281 12.0 21.0 0.00 0.00 0.00 56 1011.8
20260905113054 80 9 9.0 19.0 0.00 0.00 0.00 55 1012.0
20260905111612 80 307 16.0 22.0 0.00 0.00 0.00 54 1011.8
20260905110116 83 15 8.0 14.0 0.00 0.00 0.00 50 1011.8
20260905104607 83 281 7.0 12.0 0.00 0.00 0.00 49 1011.7
20260905103041 81 315 2.0 13.0 0.00 0.00 0.00 51 1011.8
20260905101558 81 49 5.0 12.0 0.00 0.00 0.00 52 1011.9
20260905100124 81 300 9.0 17.0 0.00 0.00 0.00 53 1011.7